| time (UTC) | temp F | wind direction | speed knots | gust knots | rain 1hr in | rain 24hr in | rain mn in | humidity % | barometer mb |
| 20260506062023 | 53 | 0.0 | 0.0 | 0.00 | 0.72 | 0.15 | 94 | 1004.8 | |
| 20260506061532 | 53 | 0.0 | 0.0 | 0.01 | 0.72 | 0.15 | 94 | 1004.8 | |
| 20260506061048 | 53 | 0.0 | 0.0 | 0.01 | 0.72 | 0.15 | 94 | 1004.8 | |
| 20260506060550 | 53 | 0.0 | 0.0 | 0.01 | 0.72 | 0.15 | 94 | 1004.7 | |
| 20260506051051 | 52 | 0.0 | 0.0 | 0.05 | 0.71 | 0.14 | 95 | 1004.9 | |
| 20260506050543 | 52 | 0.0 | 0.0 | 0.06 | 0.71 | 0.14 | 94 | 1004.9 | |
| 20260506045028 | 52 | 0.0 | 0.0 | 0.06 | 0.71 | 0.14 | 94 | 1004.8 | |
| 20260506044527 | 52 | 0.0 | 0.0 | 0.06 | 0.72 | 0.14 | 94 | 1004.9 | |
| 20260506044020 | 52 | 0.0 | 0.0 | 0.06 | 0.72 | 0.14 | 94 | 1005.0 | |
| 20260506043533 | 52 | 0.0 | 0.0 | 0.06 | 0.72 | 0.14 | 94 | 1005.0 | |
| 20260506043031 | 52 | 0.0 | 0.0 | 0.05 | 0.71 | 0.13 | 94 | 1005.0 | |
| 20260506042524 | 52 | 0.0 | 0.0 | 0.05 | 0.71 | 0.13 | 94 | 1004.9 | |
| 20260506042036 | 51 | 0.0 | 0.0 | 0.04 | 0.70 | 0.12 | 94 | 1004.9 | |
| 20260506041535 | 52 | 0.0 | 0.0 | 0.02 | 0.69 | 0.11 | 94 | 1005.0 | |
| 20260506041031 | 52 | 0.0 | 0.0 | 0.01 | 0.67 | 0.09 | 94 | 1004.9 | |
| 20260506040524 | 52 | 0.0 | 0.0 | 0.00 | 0.66 | 0.08 | 94 | 1005.0 | |
| 20260506040021 | 52 | 0.0 | 0.0 | 0.00 | 0.66 | 0.08 | 94 | 1005.0 | |
| 20260506035533 | 52 | 0.0 | 0.0 | 0.01 | 0.66 | 0.08 | 94 | 1005.0 | |
| 20260506035031 | 51 | 0.0 | 0.0 | 0.01 | 0.66 | 0.08 | 94 | 1005.0 | |
| 20260506034544 | 52 | 0.0 | 0.0 | 0.02 | 0.66 | 0.08 | 94 | 1005.0 | |
| 20260506034023 | 52 | 0.0 | 0.0 | 0.04 | 0.66 | 0.08 | 94 | 1005.0 | |
| 20260506033533 | 52 | 0.0 | 0.0 | 0.04 | 0.66 | 0.08 | 94 | 1005.0 | |
| 20260506033028 | 52 | 0.0 | 0.0 | 0.04 | 0.66 | 0.08 | 94 | 1005.0 | |
| 20260506032522 | 52 | 0.0 | 0.0 | 0.05 | 0.66 | 0.08 | 94 | 1005.0 | |
| 20260506032052 | 52 | 0.0 | 0.0 | 0.05 | 0.66 | 0.08 | 94 | 1005.1 | |
| 20260506031532 | 52 | 0.0 | 0.0 | 0.05 | 0.67 | 0.08 | 94 | 1004.9 | |
| 20260506031031 | 52 | 0.0 | 0.0 | 0.05 | 0.67 | 0.08 | 94 | 1004.9 | |
| 20260506030612 | 52 | 0.0 | 0.0 | 0.05 | 0.67 | 0.08 | 94 | 1005.0 | |
| 20260506030041 | 52 | 0.0 | 0.0 | 0.05 | 0.67 | 0.08 | 94 | 1005.1 | |
| 20260506025530 | 52 | 0.0 | 0.0 | 0.04 | 0.66 | 0.07 | 94 | 1005.2 | |
| 20260506025028 | 52 | 0.0 | 0.0 | 0.04 | 0.66 | 0.07 | 94 | 1005.2 | |
| 20260506024525 | 52 | 0.0 | 0.0 | 0.02 | 0.65 | 0.06 | 94 | 1005.2 | |
| 20260506024020 | 52 | 0.0 | 0.0 | 0.01 | 0.64 | 0.05 | 94 | 1005.3 | |
| 20260506023624 | 52 | 0.0 | 0.0 | 0.01 | 0.64 | 0.05 | 94 | 1005.3 | |
| 20260506023028 | 52 | 0.0 | 0.0 | 0.01 | 0.64 | 0.05 | 94 | 1005.3 | |
| 20260506022525 | 52 | 0.0 | 0.0 | 0.00 | 0.63 | 0.04 | 94 | 1005.3 | |
| 20260506022037 | 52 | 0.0 | 0.0 | 0.00 | 0.63 | 0.04 | 94 | 1005.4 | |
| 20260506021553 | 52 | 0.0 | 0.0 | 0.01 | 0.63 | 0.04 | 94 | 1005.4 | |
| 20260506021047 | 52 | 0.0 | 0.0 | 0.01 | 0.63 | 0.04 | 94 | 1005.4 | |
| 20260506020527 | 52 | 339 | 0.0 | 2.6 | 0.01 | 0.63 | 0.04 | 94 | 1005.4 |
| 20260506020021 | 52 | 341 | 0.0 | 2.6 | 0.01 | 0.63 | 0.04 | 94 | 1005.5 |
| 20260506015553 | 52 | 0.0 | 0.0 | 0.01 | 0.63 | 0.04 | 94 | 1005.6 | |
| 20260506015031 | 52 | 0.0 | 0.0 | 0.01 | 0.63 | 0.04 | 94 | 1005.6 | |
| 20260506014524 | 52 | 0.0 | 0.0 | 0.01 | 0.63 | 0.04 | 94 | 1005.6 | |
| 20260506014021 | 52 | 0.0 | 0.0 | 0.01 | 0.63 | 0.04 | 93 | 1005.7 | |
| 20260506013538 | 52 | 0.0 | 0.0 | 0.01 | 0.63 | 0.04 | 94 | 1005.8 | |
| 20260506013029 | 52 | 0.0 | 0.0 | 0.01 | 0.63 | 0.04 | 93 | 1005.8 | |
| 20260506012559 | 52 | 0.0 | 0.0 | 0.01 | 0.63 | 0.04 | 93 | 1005.8 | |
| 20260506012021 | 52 | 0.0 | 0.0 | 0.01 | 0.63 | 0.04 | 93 | 1005.8 | |
| 20260506011553 | 52 | 332 | 0.0 | 2.6 | 0.00 | 0.61 | 0.02 | 93 | 1005.8 |
| 20260506011029 | 52 | 340 | 0.0 | 2.6 | 0.00 | 0.61 | 0.02 | 93 | 1005.8 |
| 20260506010524 | 52 | 337 | 0.0 | 2.6 | 0.00 | 0.61 | 0.02 | 93 | 1005.8 |
| 20260506010023 | 52 | 344 | 0.0 | 4.3 | 0.00 | 0.61 | 0.02 | 93 | 1005.8 |
| 20260506005533 | 52 | 0.0 | 0.0 | 0.00 | 0.61 | 0.02 | 93 | 1005.8 | |
| 20260506005029 | 52 | 0.0 | 0.0 | 0.01 | 0.61 | 0.02 | 93 | 1005.8 | |
| 20260506004522 | 52 | 0.0 | 0.0 | 0.01 | 0.61 | 0.02 | 93 | 1005.9 | |
| 20260506004021 | 52 | 0.0 | 0.0 | 0.01 | 0.61 | 0.02 | 93 | 1005.9 | |
| 20260506003533 | 52 | 0.0 | 0.0 | 0.01 | 0.61 | 0.02 | 93 | 1005.9 | |
| 20260506003031 | 52 | 0.0 | 0.0 | 0.01 | 0.61 | 0.02 | 93 | 1005.9 | |
| 20260506002525 | 53 | 0.0 | 0.0 | 0.02 | 0.61 | 0.02 | 93 | 1005.8 | |
| 20260506002021 | 52 | 0.0 | 0.0 | 0.02 | 0.61 | 0.02 | 93 | 1005.9 | |
| 20260506001530 | 52 | 323 | 0.0 | 4.3 | 0.02 | 0.61 | 0.02 | 93 | 1005.8 |
| 20260506001029 | 53 | 0.0 | 0.0 | 0.02 | 0.61 | 0.02 | 93 | 1005.9 | |
| 20260506000525 | 53 | 337 | 0.0 | 2.6 | 0.02 | 0.61 | 0.02 | 93 | 1006.0 |
| 20260506000021 | 53 | 0.0 | 0.0 | 0.02 | 0.61 | 0.02 | 93 | 1006.1 | |
| 20260505235533 | 53 | 0.0 | 0.0 | 0.02 | 0.61 | 0.02 | 93 | 1006.1 | |
| 20260505235029 | 53 | 0.0 | 0.0 | 0.01 | 0.60 | 0.01 | 93 | 1006.2 | |
| 20260505234525 | 53 | 0.0 | 0.0 | 0.01 | 0.60 | 0.01 | 93 | 1006.3 | |
| 20260505234200 | 53 | 0.0 | 0.0 | 0.01 | 0.60 | 0.01 | 93 | 1006.3 | |
| 20260505233533 | 53 | 340 | 0.0 | 4.3 | 0.01 | 0.60 | 0.01 | 92 | 1006.3 |
| 20260505233042 | 53 | 346 | 0.0 | 2.6 | 0.01 | 0.60 | 0.01 | 93 | 1006.4 |
| 20260505232522 | 53 | 345 | 0.0 | 7.0 | 0.00 | 0.59 | 0.00 | 92 | 1006.4 |
| 20260505232021 | 53 | 334 | 0.9 | 4.3 | 0.00 | 0.59 | 0.00 | 92 | 1006.4 |
| 20260505231536 | 53 | 0.0 | 0.0 | 0.00 | 0.59 | 0.00 | 92 | 1006.3 | |
| 20260505231045 | 53 | 0.0 | 0.0 | 0.00 | 0.59 | 0.00 | 93 | 1006.4 | |
| 20260505230545 | 53 | 0.0 | 0.0 | 0.00 | 0.59 | 0.00 | 93 | 1006.4 | |
| 20260505230021 | 53 | 0.0 | 0.0 | 0.00 | 0.59 | 0.00 | 92 | 1006.4 | |
| 20260505225549 | 53 | 0.0 | 0.0 | 0.00 | 0.59 | 0.00 | 92 | 1006.4 | |
| 20260505225045 | 53 | 0.0 | 0.0 | 0.00 | 0.59 | 0.00 | 92 | 1006.4 | |
| 20260505224525 | 53 | 339 | 0.0 | 2.6 | 0.00 | 0.59 | 0.00 | 92 | 1006.4 |
| 20260505224021 | 53 | 0.0 | 0.0 | 0.01 | 0.59 | 0.00 | 93 | 1006.4 | |
| 20260505223533 | 53 | 0.0 | 0.0 | 0.02 | 0.59 | 0.00 | 93 | 1006.4 | |
| 20260505223029 | 53 | 0.0 | 0.0 | 0.05 | 0.59 | 0.00 | 93 | 1006.4 | |
| 20260505222525 | 53 | 0.0 | 0.0 | 0.05 | 0.59 | 0.00 | 92 | 1006.4 | |
| 20260505222037 | 53 | 332 | 0.0 | 2.6 | 0.05 | 0.59 | 0.00 | 92 | 1006.4 |
| 20260505221533 | 53 | 0.0 | 0.0 | 0.05 | 0.59 | 0.00 | 93 | 1006.4 | |
| 20260505221049 | 53 | 0.0 | 0.0 | 0.05 | 0.59 | 0.00 | 93 | 1006.4 | |
| 20260505220525 | 54 | 0.0 | 0.0 | 0.05 | 0.59 | 0.00 | 93 | 1006.4 | |
| 20260505220037 | 53 | 0.0 | 0.0 | 0.05 | 0.59 | 0.00 | 93 | 1006.4 | |
| 20260505215533 | 54 | 0.0 | 0.0 | 0.05 | 0.59 | 0.59 | 93 | 1006.4 | |
| 20260505215025 | 54 | 339 | 0.0 | 2.6 | 0.06 | 0.59 | 0.59 | 93 | 1006.4 |
| 20260505214621 | 54 | 340 | 0.0 | 2.6 | 0.06 | 0.59 | 0.59 | 93 | 1006.3 |
| 20260505214024 | 54 | 355 | 0.9 | 4.3 | 0.05 | 0.58 | 0.58 | 93 | 1006.3 |
| 20260505213530 | 54 | 328 | 1.7 | 7.0 | 0.04 | 0.57 | 0.57 | 93 | 1006.3 |
| 20260505213029 | 54 | 336 | 0.0 | 2.6 | 0.02 | 0.54 | 0.54 | 93 | 1006.5 |
| 20260505212541 | 54 | 342 | 0.0 | 4.3 | 0.02 | 0.54 | 0.54 | 93 | 1006.5 |
| 20260505212041 | 54 | 336 | 0.9 | 4.3 | 0.02 | 0.54 | 0.54 | 93 | 1006.6 |
| 20260505211533 | 54 | 343 | 0.0 | 2.6 | 0.02 | 0.54 | 0.54 | 93 | 1006.8 |
| 20260505211029 | 54 | 341 | 0.0 | 2.6 | 0.02 | 0.54 | 0.54 | 92 | 1006.8 |
| 20260505210605 | 54 | 343 | 0.0 | 2.6 | 0.02 | 0.54 | 0.54 | 93 | 1006.8 |
| 20260505210022 | 54 | 345 | 0.0 | 2.6 | 0.02 | 0.54 | 0.54 | 92 | 1006.8 |
| 20260505205533 | 54 | 0.0 | 0.0 | 0.02 | 0.54 | 0.54 | 92 | 1006.8 | |
| 20260505205052 | 54 | 0.0 | 0.0 | 0.01 | 0.53 | 0.53 | 92 | 1006.8 | |
| 20260505204522 | 54 | 0.0 | 0.0 | 0.01 | 0.53 | 0.53 | 92 | 1006.8 | |
| 20260505204024 | 54 | 0.0 | 0.0 | 0.01 | 0.53 | 0.53 | 92 | 1006.9 | |
| 20260505203533 | 54 | 0.0 | 0.0 | 0.02 | 0.53 | 0.53 | 92 | 1006.8 | |
| 20260505203026 | 54 | 0.0 | 0.0 | 0.01 | 0.52 | 0.52 | 92 | 1006.9 | |
| 20260505202528 | 54 | 0.0 | 0.0 | 0.01 | 0.52 | 0.52 | 93 | 1006.8 | |
| 20260505202021 | 54 | 0.0 | 0.0 | 0.02 | 0.52 | 0.52 | 93 | 1006.7 | |
| 20260505201530 | 55 | 0.0 | 0.0 | 0.05 | 0.52 | 0.52 | 93 | 1006.6 | |
| 20260505201029 | 55 | 340 | 0.9 | 4.3 | 0.06 | 0.52 | 0.52 | 93 | 1006.6 |
| 20260505200541 | 55 | 341 | 0.0 | 4.3 | 0.06 | 0.52 | 0.52 | 93 | 1006.6 |
| 20260505200021 | 55 | 0.0 | 0.0 | 0.06 | 0.52 | 0.52 | 93 | 1006.5 | |
| 20260505195533 | 55 | 0.0 | 0.0 | 0.06 | 0.52 | 0.52 | 93 | 1006.5 | |
| 20260505195029 | 55 | 342 | 0.0 | 2.6 | 0.08 | 0.52 | 0.52 | 93 | 1006.5 |
| 20260505194528 | 55 | 0.0 | 0.0 | 0.12 | 0.52 | 0.52 | 93 | 1006.4 | |
| 20260505194022 | 55 | 0.0 | 0.0 | 0.12 | 0.52 | 0.52 | 93 | 1006.3 | |
| 20260505193549 | 55 | 343 | 0.0 | 2.6 | 0.12 | 0.51 | 0.51 | 93 | 1006.3 |
| 20260505193042 | 56 | 344 | 0.0 | 2.6 | 0.12 | 0.51 | 0.51 | 93 | 1006.3 |
| 20260505192522 | 56 | 342 | 0.0 | 4.3 | 0.12 | 0.51 | 0.51 | 93 | 1006.3 |
| 20260505192057 | 56 | 0.0 | 0.0 | 0.11 | 0.50 | 0.50 | 93 | 1006.3 | |
| 20260505191533 | 56 | 358 | 0.0 | 2.6 | 0.09 | 0.47 | 0.47 | 93 | 1006.2 |
| 20260505191026 | 56 | 0.0 | 0.0 | 0.08 | 0.46 | 0.46 | 93 | 1006.3 | |
| 20260505190525 | 57 | 347 | 0.0 | 4.3 | 0.09 | 0.46 | 0.46 | 93 | 1006.2 |
| 20260505190021 | 57 | 0.0 | 0.0 | 0.09 | 0.46 | 0.46 | 93 | 1006.1 | |
| 20260505185533 | 57 | 0.0 | 0.0 | 0.11 | 0.46 | 0.46 | 93 | 1006.1 | |
| 20260505185106 | 57 | 342 | 0.9 | 7.0 | 0.08 | 0.44 | 0.44 | 92 | 1006.1 |
| 20260505184525 | 58 | 0 | 0.0 | 4.3 | 0.05 | 0.40 | 0.40 | 92 | 1006.1 |
| 20260505184021 | 58 | 0.0 | 0.0 | 0.06 | 0.40 | 0.40 | 92 | 1006.2 | |
| 20260505183549 | 58 | 0.0 | 0.0 | 0.05 | 0.39 | 0.39 | 92 | 1006.1 | |
| 20260505183029 | 58 | 0.0 | 0.0 | 0.05 | 0.39 | 0.39 | 92 | 1006.1 | |
| 20260505182540 | 58 | 0.0 | 0.0 | 0.06 | 0.39 | 0.39 | 92 | 1006.2 | |
| 20260505182022 | 58 | 0.0 | 0.0 | 0.06 | 0.39 | 0.39 | 91 | 1006.2 | |
| 20260505181533 | 58 | 0.0 | 0.0 | 0.05 | 0.38 | 0.38 | 91 | 1006.2 | |
| 20260505181042 | 58 | 0.0 | 0.0 | 0.05 | 0.38 | 0.38 | 91 | 1006.2 | |
| 20260505180542 | 58 | 0.0 | 0.0 | 0.04 | 0.37 | 0.37 | 91 | 1006.3 | |
| 20260505180037 | 58 | 0.0 | 0.0 | 0.05 | 0.37 | 0.37 | 91 | 1006.3 | |
| 20260505175533 | 58 | 0.0 | 0.0 | 0.04 | 0.35 | 0.35 | 91 | 1006.3 | |
| 20260505175026 | 58 | 0.0 | 0.0 | 0.04 | 0.35 | 0.35 | 91 | 1006.3 | |
| 20260505174528 | 58 | 0.0 | 0.0 | 0.05 | 0.35 | 0.35 | 91 | 1006.4 | |
| 20260505174041 | 58 | 0.0 | 0.0 | 0.04 | 0.34 | 0.34 | 91 | 1006.4 | |
| 20260505173530 | 58 | 6 | 0.0 | 2.6 | 0.04 | 0.34 | 0.34 | 91 | 1006.4 |
| 20260505173032 | 59 | 1 | 0.0 | 2.6 | 0.04 | 0.34 | 0.34 | 91 | 1006.4 |
| 20260505172525 | 59 | 0.0 | 0.0 | 0.02 | 0.33 | 0.33 | 91 | 1006.4 | |
| 20260505172021 | 59 | 0.0 | 0.0 | 0.02 | 0.33 | 0.33 | 91 | 1006.4 | |
| 20260505171612 | 59 | 0.0 | 0.0 | 0.04 | 0.33 | 0.33 | 91 | 1006.4 | |
| 20260505171029 | 59 | 0.0 | 0.0 | 0.04 | 0.33 | 0.33 | 91 | 1006.4 | |
| 20260505170525 | 59 | 7 | 0.0 | 2.6 | 0.04 | 0.33 | 0.33 | 90 | 1006.4 |
| 20260505170022 | 59 | 0.0 | 0.0 | 0.02 | 0.32 | 0.32 | 90 | 1006.4 | |
| 20260505165534 | 59 | 0.0 | 0.0 | 0.02 | 0.32 | 0.32 | 90 | 1006.4 | |
| 20260505165029 | 59 | 0.0 | 0.0 | 0.02 | 0.32 | 0.32 | 90 | 1006.5 | |
| 20260505164522 | 59 | 0.0 | 0.0 | 0.01 | 0.31 | 0.31 | 89 | 1006.5 | |
| 20260505164021 | 59 | 3 | 0.0 | 2.6 | 0.02 | 0.31 | 0.31 | 89 | 1006.5 |
| 20260505163536 | 59 | 1 | 0.0 | 4.3 | 0.02 | 0.31 | 0.31 | 89 | 1006.6 |
| 20260505163025 | 59 | 0.0 | 0.0 | 0.02 | 0.32 | 0.31 | 89 | 1006.6 | |
| 20260505162525 | 60 | 0.0 | 0.0 | 0.02 | 0.32 | 0.31 | 89 | 1006.6 | |
| 20260505162021 | 60 | 0.0 | 0.0 | 0.04 | 0.32 | 0.31 | 88 | 1006.6 | |
| 20260505161550 | 60 | 0.0 | 0.0 | 0.04 | 0.31 | 0.30 | 89 | 1006.6 | |
| 20260505161050 | 60 | 0.0 | 0.0 | 0.06 | 0.31 | 0.30 | 89 | 1006.6 | |
| 20260505160525 | 60 | 0.0 | 0.0 | 0.07 | 0.31 | 0.30 | 89 | 1006.7 | |
| 20260505153029 | 60 | 0.0 | 0.0 | 0.17 | 0.31 | 0.28 | 91 | 1006.7 | |
| 20260505152541 | 60 | 353 | 0.0 | 2.6 | 0.17 | 0.31 | 0.28 | 91 | 1006.8 |
| 20260505152024 | 60 | 357 | 0.0 | 2.6 | 0.17 | 0.30 | 0.27 | 91 | 1006.8 |
| 20260505151533 | 60 | 338 | 0.0 | 2.6 | 0.15 | 0.28 | 0.26 | 90 | 1006.8 |
| 20260505151046 | 60 | 0.0 | 0.0 | 0.13 | 0.26 | 0.24 | 89 | 1006.8 | |
| 20260505150526 | 60 | 0.0 | 0.0 | 0.12 | 0.25 | 0.22 | 90 | 1006.8 | |
| 20260505140542 | 60 | 323 | 1.7 | 4.3 | 0.08 | 0.15 | 0.11 | 87 | 1006.8 |
| 20260505130122 | 63 | 336 | 0.0 | 2.6 | 0.00 | 0.14 | 0.02 | 77 | 1007.2 |
| 20260505125030 | 63 | 342 | 0.9 | 7.0 | 0.00 | 0.14 | 0.02 | 75 | 1007.3 |
| 20260505124522 | 64 | 341 | 0.0 | 2.6 | 0.00 | 0.14 | 0.02 | 74 | 1007.3 |
| 20260505124022 | 64 | 324 | 0.0 | 2.6 | 0.00 | 0.14 | 0.02 | 74 | 1007.3 |
| 20260505123534 | 64 | 328 | 0.0 | 2.6 | 0.00 | 0.14 | 0.02 | 73 | 1007.3 |
| 20260505123028 | 64 | 0.0 | 0.0 | 0.00 | 0.14 | 0.02 | 71 | 1007.3 | |
| 20260505122526 | 65 | 0.0 | 0.0 | 0.00 | 0.14 | 0.02 | 71 | 1007.3 | |
| 20260505122022 | 65 | 337 | 0.0 | 2.6 | 0.00 | 0.14 | 0.02 | 71 | 1007.3 |
| 20260505121530 | 65 | 321 | 0.9 | 4.3 | 0.00 | 0.14 | 0.02 | 70 | 1007.4 |
| 20260505121030 | 65 | 320 | 1.7 | 7.0 | 0.00 | 0.14 | 0.02 | 69 | 1007.4 |
| 20260505120542 | 65 | 327 | 0.9 | 4.3 | 0.00 | 0.14 | 0.02 | 69 | 1007.5 |
| 20260505120022 | 65 | 320 | 1.7 | 4.3 | 0.00 | 0.14 | 0.02 | 70 | 1007.5 |
| 20260505115617 | 66 | 324 | 1.7 | 7.0 | 0.00 | 0.14 | 0.02 | 69 | 1007.5 |
| 20260505115030 | 67 | 325 | 1.7 | 8.7 | 0.00 | 0.14 | 0.02 | 67 | 1007.6 |
| 20260505114526 | 67 | 323 | 0.9 | 4.3 | 0.00 | 0.14 | 0.02 | 65 | 1007.6 |
| 20260505114022 | 67 | 335 | 0.9 | 4.3 | 0.00 | 0.14 | 0.02 | 65 | 1007.7 |
| 20260505113534 | 68 | 342 | 0.0 | 2.6 | 0.00 | 0.14 | 0.02 | 66 | 1007.7 |
| 20260505113050 | 68 | 343 | 0.0 | 2.6 | 0.00 | 0.14 | 0.02 | 65 | 1007.7 |
| 20260505112521 | 68 | 339 | 0.0 | 4.3 | 0.00 | 0.14 | 0.02 | 65 | 1007.7 |
| 20260505112038 | 68 | 321 | 0.9 | 4.3 | 0.00 | 0.14 | 0.02 | 60 | 1007.7 |
| 20260505111534 | 68 | 10 | 0.9 | 4.3 | 0.00 | 0.14 | 0.02 | 60 | 1007.8 |
| 20260505111026 | 67 | 3 | 0.0 | 2.6 | 0.00 | 0.14 | 0.02 | 62 | 1007.9 |
| 20260505110526 | 67 | 1 | 0.0 | 2.6 | 0.00 | 0.14 | 0.02 | 62 | 1007.9 |
| 20260505102022 | 69 | 328 | 0.9 | 4.3 | 0.00 | 0.14 | 0.02 | 60 | 1008.2 |
| 20260505101555 | 69 | 5 | 0.0 | 4.3 | 0.00 | 0.14 | 0.02 | 61 | 1008.3 |
| 20260505101033 | 70 | 357 | 0.9 | 8.7 | 0.00 | 0.14 | 0.02 | 59 | 1008.3 |
| 20260505100521 | 69 | 5 | 0.9 | 4.3 | 0.00 | 0.14 | 0.02 | 59 | 1008.3 |
| 20260505100022 | 68 | 0.0 | 0.0 | 0.00 | 0.14 | 0.02 | 61 | 1008.3 | |
| 20260505095534 | 69 | 19 | 2.6 | 13.0 | 0.00 | 0.14 | 0.02 | 61 | 1008.4 |
| 20260505095025 | 69 | 342 | 0.0 | 2.6 | 0.00 | 0.14 | 0.02 | 61 | 1008.4 |
| 20260505094526 | 69 | 10 | 1.7 | 7.0 | 0.00 | 0.14 | 0.02 | 61 | 1008.5 |
| 20260505094045 | 68 | 0.0 | 0.0 | 0.00 | 0.14 | 0.02 | 62 | 1008.4 | |
| 20260505093530 | 68 | 0.0 | 0.0 | 0.00 | 0.14 | 0.02 | 63 | 1008.5 | |
| 20260505093030 | 67 | 351 | 0.0 | 2.6 | 0.00 | 0.14 | 0.02 | 65 | 1008.6 |
| 20260505092526 | 66 | 11 | 1.7 | 7.0 | 0.00 | 0.14 | 0.02 | 64 | 1008.7 |
| 20260505092022 | 67 | 12 | 0.9 | 4.3 | 0.00 | 0.14 | 0.02 | 66 | 1008.6 |
| 20260505091534 | 66 | 11 | 0.9 | 4.3 | 0.00 | 0.14 | 0.02 | 67 | 1008.6 |
| 20260505091030 | 65 | 351 | 0.0 | 4.3 | 0.00 | 0.14 | 0.02 | 68 | 1008.6 |
| 20260505090546 | 65 | 18 | 0.9 | 7.0 | 0.00 | 0.14 | 0.02 | 68 | 1008.7 |
| 20260505090105 | 65 | 15 | 0.9 | 7.0 | 0.00 | 0.14 | 0.02 | 68 | 1008.7 |
| 20260505085534 | 65 | 0.0 | 0.0 | 0.00 | 0.14 | 0.02 | 69 | 1008.7 | |
| 20260505085033 | 65 | 0.0 | 0.0 | 0.00 | 0.14 | 0.02 | 70 | 1008.8 | |
| 20260505084522 | 65 | 0.0 | 0.0 | 0.00 | 0.14 | 0.02 | 69 | 1008.9 | |
| 20260505084022 | 64 | 0.0 | 0.0 | 0.00 | 0.14 | 0.02 | 69 | 1008.9 | |
| 20260505083549 | 64 | 0.0 | 0.0 | 0.00 | 0.14 | 0.02 | 71 | 1009.0 | |
| 20260505083025 | 64 | 22 | 0.0 | 4.3 | 0.00 | 0.14 | 0.02 | 72 | 1009.0 |
| 20260505082526 | 63 | 7 | 0.0 | 4.3 | 0.00 | 0.14 | 0.02 | 74 | 1009.0 |
| 20260505082042 | 63 | 8 | 0.0 | 2.6 | 0.00 | 0.14 | 0.02 | 74 | 1009.0 |
| 20260505081529 | 63 | 14 | 0.9 | 4.3 | 0.00 | 0.14 | 0.02 | 76 | 1009.1 |
| 20260505081050 | 63 | 7 | 0.9 | 4.3 | 0.00 | 0.14 | 0.02 | 75 | 1009.1 |
| 20260505080529 | 63 | 14 | 0.9 | 4.3 | 0.00 | 0.14 | 0.02 | 73 | 1009.0 |
| 20260505080022 | 64 | 343 | 0.0 | 2.6 | 0.00 | 0.14 | 0.02 | 72 | 1009.1 |
| 20260505075534 | 64 | 9 | 0.0 | 4.3 | 0.00 | 0.14 | 0.02 | 73 | 1009.1 |
| 20260505075030 | 65 | 342 | 0.0 | 2.6 | 0.00 | 0.14 | 0.02 | 72 | 1009.1 |
| 20260505074526 | 64 | 12 | 0.0 | 4.3 | 0.00 | 0.14 | 0.02 | 74 | 1009.1 |
| 20260505074022 | 63 | 10 | 0.9 | 4.3 | 0.00 | 0.14 | 0.02 | 76 | 1009.2 |
| 20260505073537 | 61 | 0.0 | 0.0 | 0.00 | 0.14 | 0.02 | 81 | 1009.3 | |
| 20260505073030 | 60 | 12 | 0.0 | 4.3 | 0.00 | 0.14 | 0.02 | 83 | 1009.3 |
| 20260505072541 | 60 | 0.0 | 0.0 | 0.00 | 0.14 | 0.02 | 84 | 1009.3 | |
| 20260505072022 | 60 | 0.0 | 0.0 | 0.00 | 0.14 | 0.02 | 85 | 1009.3 | |
| 20260505071534 | 59 | 0.0 | 0.0 | 0.00 | 0.14 | 0.02 | 86 | 1009.4 | |
| 20260505071045 | 59 | 331 | 0.0 | 2.6 | 0.00 | 0.14 | 0.02 | 86 | 1009.4 |
| 20260505070546 | 59 | 0.0 | 0.0 | 0.00 | 0.14 | 0.02 | 87 | 1009.3 | |
| 20260505070022 | 58 | 0.0 | 0.0 | 0.00 | 0.14 | 0.02 | 88 | 1009.5 |